Weather in Novoye Kurmanovo

Russia / Chelyabinsk Oblast     55°31′58″N   61°43′49″E
temp.,
°C
wind,
m/s
gust,
m/s
humid.,
%
clouds,
%
prec.,
mm/h
press.,
hPa
HPBL,
m
18 august, thu
thu1823:00+14nne3656100 0.1 1022179
02:00+11nnw3480100 0.6 102393
05:00+7nne37825 0.6 1024119
08:00+9nne58740 0.0 1025405
11:00+14nne56435 0.0 10251580
14:00+16nne56365 0.0 10252010
17:00+16nne573598 0.0 10252380
20:00+12ne375026 0.0 1026202
19 august, fri
fri1923:00+11nne485888 0.0 1028435
02:00+9nne466652 0.0 1029363
05:00+5n349261 0.0 103160
08:00+9n467366 0.0 1032465
11:00+13n455642 0.0 10311187
14:00+17n564940 0.0 10301522
17:00+19nnw474418 0.0 10281738
20:00+16wnw455942 0.0 102776
20 august, sat
sat2023:00+13nw411695 0.0 1027189
02:00+11nw4107425 0.0 1027168
05:00+11nw488044 0.0 1027142
08:00+16nnw610695 0.0 1026357
11:00+23nnw68533 0.0 1025951
14:00+25nnw61045100 0.0 10232354
17:00+22nw4105942 0.0 1023303
20:00+17nnw51189100 1.0 1024412
21 august, sun
sun2123:00+16n61196100 1.1 1025401
02:00+14n51096100 0.1 1025333
05:00+11n41097100 0.1 1026236
08:00+14nne510856 0.0 1027441
11:00+18nne575882 0.0 10271131
14:00+20nne674321 0.0 10271539
17:00+20ne673640 0.0 10271525
20:00+15ne33535 0.0 102838
22 august, mon
mon2223:00+12e22665 0.0 102912
02:00+10wnw11735 0.0 102910
05:00+10n22745 0.0 103014
08:00+14nne23583 0.0 1030191
11:00+20ne34445 0.0 10311089
14:00+22ne34335 0.0 10301620
17:00+23ene33325 0.0 10291639
20:00+16se33515 0.0 103025